Weather History for Minchumina, AK

Change the Weather History Date:

Sunday, June 17, 2012

  Actual Average Record
Temperature  
Mean Temperature 60 °F -  
Max Temperature 69 °F 65 °F 84 °F (2013)
Min Temperature 51 °F 48 °F 44 °F (1997)
Degree Days  
Heating Degree Days 5    
Growing Degree Days 10 (Base 50)    
Moisture  
Dew Point 46 °F    
Average Humidity 59    
Maximum Humidity 88    
Minimum Humidity 38    
Precipitation  
Precipitation 0.00 in - - ()
Sea Level Pressure  
Sea Level Pressure 29.61 in    
Wind  
Wind Speed 2 mph (SSW)    
Max Wind Speed 16 mph    
Max Gust Speed 21 mph    
Visibility 10 miles    
Events      
Averages and records for this station are not official NWS values.
T = Trace of Precipitation, MM = Missing Value Source: NWS Daily Summary

Daily Weather History Graph

Daily Weather History Graph

Search for Another Location

Airport:

Trip Planner

Search our weather history database for the weather conditions in past years. The results will help you decide how hot, cold, wet, or windy it might be!

Date:

Astronomy

Jun. 17, 2012 Rise Set
Actual Time 3:43 AM AKDT 12:37 AM AKDT
Civil Twilight Sun does not rise Sun does not rise
Nautical Twilight Sun does not rise Sun does not rise
Astronomical Twilight Sun does not rise Sun does not rise
Moon 3:03 AM AKDT (6/17) 10:40 PM AKDT (6/17)
Length of Visible Light 24h 00m
Length of Day
20h 54m
Waning Crescent, 3% of the Moon is Illuminated
Jun 17
Waning Crescent
Jun 19
New
Jun 26
First Quarter
Jul 3
Full
Jul 10
Last Quarter

Hourly Weather History & Observations

Time (AKDT) Temp. Dew Point Humidity Pressure Visibility Wind Dir Wind Speed Gust Speed Precip Events Conditions
12:16 AM 59.0 °F 37.4 °F 45% 29.41 in 10.0 mi Calm Calm - N/A   Mostly Cloudy
12:36 AM 57.2 °F 37.4 °F 48% 29.42 in 10.0 mi Calm Calm - N/A   Overcast
12:56 AM 57.2 °F 44.6 °F 63% 29.43 in 7.0 mi SSW 3.5 mph - N/A   Overcast
1:16 AM 53.6 °F 46.4 °F 77% 29.43 in 10.0 mi NW 3.5 mph - N/A   Overcast
1:36 AM 51.8 °F 46.4 °F 82% 29.44 in 10.0 mi Calm Calm - N/A   Overcast
1:56 AM 51.8 °F 46.4 °F 82% 29.44 in 10.0 mi Calm Calm - N/A   Overcast
2:16 AM 51.8 °F 46.4 °F 82% 29.45 in 10.0 mi Calm Calm - N/A   Overcast
2:36 AM 53.6 °F 44.6 °F 72% 29.45 in 10.0 mi Calm Calm - N/A   Overcast
2:56 AM 53.6 °F 44.6 °F 72% 29.45 in 10.0 mi Calm Calm - N/A   Overcast
3:16 AM 55.4 °F 42.8 °F 63% 29.46 in 10.0 mi Calm Calm - N/A   Overcast
3:36 AM 51.8 °F 46.4 °F 82% 29.48 in 10.0 mi Calm Calm - N/A   Overcast
3:56 AM 53.6 °F 46.4 °F 77% 29.48 in 10.0 mi Calm Calm - N/A   Overcast
4:16 AM 53.6 °F 42.8 °F 67% 29.48 in 10.0 mi Calm Calm - N/A   Overcast
4:36 AM 53.6 °F 41.0 °F 62% 29.49 in 10.0 mi Calm Calm - N/A   Overcast
4:56 AM 53.6 °F 41.0 °F 62% 29.50 in 10.0 mi Calm Calm - N/A   Overcast
5:16 AM 55.4 °F 44.6 °F 67% 29.51 in 10.0 mi Calm Calm - N/A   Overcast
5:36 AM 55.4 °F 41.0 °F 58% 29.51 in 10.0 mi Calm Calm - N/A   Mostly Cloudy
5:56 AM 55.4 °F 42.8 °F 63% 29.52 in 10.0 mi Calm Calm - N/A   Clear
6:16 AM 53.6 °F 42.8 °F 67% 29.52 in 10.0 mi Calm Calm - N/A   Scattered Clouds
6:36 AM 53.6 °F 42.8 °F 67% 29.53 in 10.0 mi Calm Calm - N/A   Scattered Clouds
6:56 AM 53.6 °F 42.8 °F 67% 29.54 in 10.0 mi Calm Calm - N/A   Clear
7:16 AM 55.4 °F 44.6 °F 67% 29.55 in 10.0 mi Calm Calm - N/A   Partly Cloudy
7:36 AM 55.4 °F 44.6 °F 67% 29.56 in 10.0 mi Calm Calm - N/A   Mostly Cloudy
7:56 AM 57.2 °F 42.8 °F 59% 29.56 in 10.0 mi Calm Calm - N/A   Mostly Cloudy
8:16 AM 57.2 °F 44.6 °F 63% 29.57 in 10.0 mi Calm Calm - N/A   Mostly Cloudy
8:56 AM 59.0 °F 44.6 °F 59% 29.58 in 10.0 mi SSW 4.6 mph - N/A   Clear
9:16 AM 60.8 °F 44.6 °F 55% 29.59 in 10.0 mi Calm Calm - N/A   Clear
9:36 AM 62.6 °F 46.4 °F 55% 29.59 in 10.0 mi SSW 4.6 mph - N/A   Clear
9:56 AM 62.6 °F 44.6 °F 52% 29.60 in 10.0 mi SSW 4.6 mph - N/A   Clear
10:16 AM 64.4 °F 42.8 °F 45% 29.60 in 10.0 mi SW 3.5 mph - N/A   Clear
10:36 AM 64.4 °F 44.6 °F 49% 29.61 in 10.0 mi South 3.5 mph - N/A   Clear
10:56 AM 66.2 °F 46.4 °F 49% 29.62 in 10.0 mi SSE 6.9 mph - N/A   Clear
11:16 AM 66.2 °F 46.4 °F 49% 29.62 in 10.0 mi SSE 5.8 mph - N/A   Clear
11:36 AM 66.2 °F 48.2 °F 52% 29.62 in 10.0 mi South 4.6 mph - N/A   Clear
11:56 AM 69.8 °F 46.4 °F 43% 29.63 in 10.0 mi South 5.8 mph - N/A   Clear
12:16 PM 68.0 °F 44.6 °F 43% 29.63 in 10.0 mi SSW 3.5 mph - N/A   Mostly Cloudy
12:36 PM 64.4 °F 53.6 °F 68% 29.63 in 7.0 mi Calm Calm - N/A   Overcast
12:56 PM 57.2 °F 53.6 °F 88% 29.63 in 10.0 mi Calm Calm - N/A   Overcast
1:16 PM 60.8 °F 50.0 °F 68% 29.63 in 10.0 mi Calm Calm - N/A   Scattered Clouds
1:36 PM 60.8 °F 53.6 °F 77% 29.64 in 10.0 mi SE 3.5 mph - N/A   Mostly Cloudy
1:56 PM 64.4 °F 51.8 °F 64% 29.64 in 10.0 mi SSE 5.8 mph - N/A   Mostly Cloudy
2:16 PM 59.0 °F 46.4 °F 63% 29.66 in 4.0 mi Calm Calm - N/A   Overcast
2:36 PM 60.8 °F 46.4 °F 59% 29.65 in 10.0 mi Calm Calm - N/A   Overcast
2:56 PM 62.6 °F 48.2 °F 59% 29.66 in 10.0 mi SE 3.5 mph - N/A   Overcast
3:16 PM 64.4 °F 51.8 °F 64% 29.66 in 10.0 mi SE 3.5 mph - N/A   Overcast
3:36 PM 66.2 °F 48.2 °F 52% 29.66 in 10.0 mi South 3.5 mph - N/A   Overcast
3:56 PM 66.2 °F 50.0 °F 56% 29.66 in 10.0 mi Calm Calm - N/A   Overcast
4:16 PM 69.8 °F 51.8 °F 53% 29.66 in 10.0 mi SE 3.5 mph - N/A   Overcast
4:36 PM 68.0 °F 46.4 °F 46% 29.67 in 10.0 mi Calm Calm - N/A   Scattered Clouds
4:56 PM 69.8 °F 46.4 °F 43% 29.68 in 10.0 mi South 11.5 mph 16.1 mph N/A   Mostly Cloudy
5:16 PM 69.8 °F 46.4 °F 43% 29.68 in 10.0 mi South 6.9 mph - N/A   Mostly Cloudy
5:36 PM 69.8 °F 44.6 °F 40% 29.69 in 10.0 mi SSW 9.2 mph - N/A   Partly Cloudy
5:56 PM 69.8 °F 42.8 °F 38% 29.69 in 10.0 mi SSW 10.4 mph - N/A   Scattered Clouds
6:16 PM 68.0 °F 44.6 °F 43% 29.70 in 10.0 mi SSW 8.1 mph 16.1 mph N/A   Mostly Cloudy
6:36 PM 68.0 °F 44.6 °F 43% 29.70 in 10.0 mi SSW 8.1 mph - N/A   Mostly Cloudy
6:56 PM 69.8 °F 44.6 °F 40% 29.70 in 10.0 mi SSW 8.1 mph - N/A   Mostly Cloudy
7:16 PM 69.8 °F 44.6 °F 40% 29.70 in 10.0 mi SSW 6.9 mph - N/A   Overcast
7:36 PM 68.0 °F 44.6 °F 43% 29.71 in 10.0 mi South 16.1 mph 20.7 mph N/A   Overcast
7:56 PM 64.4 °F 46.4 °F 52% 29.73 in 10.0 mi SSW 12.7 mph 19.6 mph N/A   Overcast
8:16 PM 62.6 °F 46.4 °F 55% 29.74 in 10.0 mi SSW 8.1 mph - N/A   Overcast
8:36 PM 62.6 °F 46.4 °F 55% 29.74 in 10.0 mi SSW 8.1 mph - N/A   Overcast
8:56 PM 60.8 °F 48.2 °F 63% 29.75 in 10.0 mi SSW 5.8 mph - N/A   Overcast
9:16 PM 62.6 °F 48.2 °F 59% 29.75 in 10.0 mi SSW 10.4 mph 16.1 mph N/A   Overcast
9:36 PM 62.6 °F 46.4 °F 55% 29.76 in 10.0 mi SSW 8.1 mph - N/A   Overcast
9:56 PM 62.6 °F 48.2 °F 59% 29.77 in 10.0 mi SW 5.8 mph - N/A   Overcast
10:16 PM 62.6 °F 48.2 °F 59% 29.78 in 10.0 mi SSW 4.6 mph - N/A   Overcast
10:36 PM 60.8 °F 48.2 °F 63% 29.78 in 10.0 mi Calm Calm - N/A   Overcast
10:56 PM 60.8 °F 48.2 °F 63% 29.79 in 10.0 mi SW 3.5 mph - N/A   Overcast
11:16 PM 60.8 °F 50.0 °F 68% 29.79 in 10.0 mi SW 4.6 mph - N/A   Overcast
11:36 PM 60.8 °F 48.2 °F 63% 29.79 in 10.0 mi Calm Calm - N/A   Overcast
11:56 PM 59.0 °F 48.2 °F 67% 29.79 in 10.0 mi Calm Calm - N/A   Overcast